Location: Fort Wayne
(41.1310°N, 85.1290°W)
Time: 20:09:40
(UTC-04:00)

Meteor 2-10 Rocket - Visible Passes

Search period start: 30 May 2016 00:00
Search period end: 09 June 2016 00:00
Orbit: 733 x 886 km, 81.2° (Epoch: 30 May)

Date Brightness Start Highest point End Pass type
(mag) Time Alt. Az. Time Alt. Az. Time Alt. Az.
30 May 4.5 04:48:32 10° N 04:53:27 49° ENE 04:58:28 10° SSE visible
31 May 5.1 04:24:29 10° N 04:29:06 34° ENE 04:33:50 10° SE visible
01 Jun 5.6 04:00:34 10° NNE 04:04:44 25° ENE 04:08:58 10° SE visible
02 Jun 6.1 03:36:51 10° NNE 03:40:18 18° ENE 03:43:48 10° ESE visible
02 Jun 3.7 05:17:42 10° NNW 05:22:39 52° W 05:27:45 10° S visible
03 Jun 6.3 03:13:34 10° NE 03:15:49 13° ENE 03:18:06 10° E visible
03 Jun 3.5 04:53:18 10° NNW 04:58:26 76° W 05:03:42 10° S visible
04 Jun 3.7 04:29:02 10° N 04:34:11 77° E 04:39:30 10° SSE visible
05 Jun 4.2 04:04:51 10° N 04:09:53 54° ENE 04:15:06 10° SSE visible
06 Jun 4.8 03:40:45 10° N 03:45:34 38° ENE 03:50:30 10° SE visible
06 Jun 4.7 05:23:16 10° NW 05:27:23 24° W 05:31:35 10° SW visible
07 Jun 5.3 03:16:47 10° NNE 03:21:12 27° ENE 03:25:43 10° SE visible
07 Jun 4.3 04:58:36 10° NNW 05:03:15 34° W 05:08:03 10° SSW visible
08 Jun 5.8 02:52:59 10° NNE 02:56:47 20° ENE 03:00:39 10° ESE visible
08 Jun 3.8 04:34:04 10° NNW 04:39:04 49° W 04:43:21 15° SSW visible
